Regional Weather Roundup
Issued by NWS

Home | Current Version | Previous Version | Graphics & Text | Print | Product List | Glossary On
Versions: 1 2 3 4 5 6 7 8 9 10 11 12 13 14 15 16 17 18 19 20 21 22 23 24 25 26 27 28 29 30 31 32 33 34 35 36 37 38 39 40 41 42 43 44 45 46 47 48 49 50
000
ASUS43 KLMK 190002
RWRKY
KENTUCKY REGIONAL WEATHER ROUNDUP
NATIONAL WEATHER SERVICE LOUISVILLE KY
800 PM EDT WED OCT 18 2017

NOTE "FAIR" INDICATES FEW OR NO CLOUDS BELOW 12,000 FEET
WITH NO SIGNIFICANT WEATHER AND/OR OBSTRUCTIONS TO VISIBILITY.

KYZ001>023-026-027-061>063-070>075-190100-
WESTERN AND SOUTH CENTRAL KENTUCKY

CITY           SKY/WX    TMP DP  RH WIND       PRES   REMARKS
PADUCAH        CLEAR     61  46  57 S5        30.17S
HENDERSON      CLEAR     58  47  66 S6        30.19R
OWENSBORO      CLEAR     61  48  62 S5        30.20R
HOPKINSVILLE   NOT AVBL
BOWLING GREEN  CLEAR     59  46  62 SE3       30.22S
GLASGOW        NOT AVBL
$$

KYZ024-025-028>034-038-045-046-053-190100-
NORTH CENTRAL KENTUCKY

CITY           SKY/WX    TMP DP  RH WIND       PRES   REMARKS
LOUISVILLE/SDF CLEAR     64  46  52 S7        30.21R
LOUISVILLE/LOU CLEAR     63  47  55 SE3       30.22R
FORT KNOX      CLEAR     55  47  74 CALM      30.20S
$$

KYZ035>037-039>044-047>052-055>060-089>105-190100-
NORTHEAST KENTUCKY

CITY           SKY/WX    TMP DP  RH WIND       PRES   REMARKS
LEXINGTON      CLEAR     60  45  57 S6        30.24S
COVINGTON      PTCLDY    57  45  64 S5        30.21S
FRANKFORT      CLEAR     56  44  64 SW3       30.22S
$$

KYZ054-064>069-076>088-106>120-190100-
SOUTHEAST KENTUCKY

CITY           SKY/WX    TMP DP  RH WIND       PRES   REMARKS
JACKSON        PTCLDY    63  40  42 CALM      30.26S
LONDON         CLEAR     56  49  77 CALM      30.26S
SOMERSET       NOT AVBL
MIDDLESBORO    CLOUDY    56  48  74 W3        30.29R
MONTICELLO     CLEAR     49  45  86 N9        30.27R
$$





USA.gov is the U.S. government's official web portal to all federal, state and local government web resources and services.